This demonstration page uses our WeatherBlox Daily Observations layout. Learn more.

Left ArrowRight Arrow

30.00354, -91.81873

Hourly Observations for August 5, 2022

Temp ( °F °C ) Dew Point ( °F °C ) Humidity (%) Winds ( mph kmh ) Pressure ( in mb ) Visibility ( mi km ) Precip ( " mm )
12:53 am 00:53 Clear 76 24.4 73 22.8 91 91 E 3 6 30.01 1016 10 16 0.00 0.00
1:53 am 01:53 Clear 75 23.9 73 22.8 94 94 E 5 7 30.00 1016 10 16 0.00 0.00
2:53 am 02:53 Clear 76 24.4 73 22.8 91 91 Calm 30.00 1016 10 16 0.00 0.00
3:53 am 03:53 Mostly Clear 75 23.9 73 22.8 94 94 E 3 6 29.98 1015 10 16 0.00 0.00
4:53 am 04:53 Clear 75 23.9 73 22.8 94 94 E 3 6 29.99 1016 10 16 0.00 0.00
5:53 am 05:53 Mostly Clear 75 23.9 73 22.8 94 94 E 5 7 30.01 1016 10 16 0.00 0.00
6:53 am 06:53 Mostly Cloudy 75 23.9 73 22.8 94 94 ENE 6 9 30.02 1017 10 16 0.00 0.00
7:53 am 07:53 Sunny 78 25.6 74 23.3 87 87 E 7 11 30.03 1017 10 16 0.00 0.00
8:53 am 08:53 Sunny 81 27.2 74 23.3 79 79 ESE 10 17 30.03 1017 10 16 0.00 0.00
9:53 am 09:53 Partly Cloudy 84 28.9 74 23.3 72 72 E 6 9 30.04 1017 10 16 0.00 0.00
10:53 am 10:53 Mostly Cloudy 85 29.4 73 22.8 68 68 SE 6 9 30.05 1018 10 16 0.00 0.00
11:53 am 11:53 Partly Cloudy 88 31.1 73 22.8 61 61 SE 10 17 30.05 1018 10 16 0.00 0.00
12:10 pm 12:10 Mostly Cloudy 88 31.1 72 22.2 59 59 SSE 7 11 30.05 1017 10 16 0.00 0.00
12:53 pm 12:53 Mostly Cloudy 86 30 73 22.8 65 65 SSE 8 13 30.04 1017 10 16 0.00 0.00
1:53 pm 13:53 Cloudy 83 28.3 73 22.8 72 72 SE 23 37 30.04 1017 10 16 0.00 0.00
2:10 pm 14:10 Mostly Cloudy with Nearby Thunderstorms 82 27.8 72 22.2 72 72 SE 21 33 30.06 1018 10 16 0.00 0.00
2:43 pm 14:43 Cloudy with Light Rain 78 25.6 73 22.8 85 85 E 6 9 30.05 1018 8 13 0.02 0.51
2:53 pm 14:53 Cloudy 79 26.1 74 23.3 85 85 E 5 7 30.04 1017 10 16 0.02 0.51
3:53 pm 15:53 Sunny 82 27.8 75 23.9 79 79 E 7 11 30.03 1017 10 16 0.00 0.00
4:53 pm 16:53 Mostly Sunny 86 30 74 23.3 67 67 SSE 10 17 30.00 1016 10 16 0.00 0.00
5:53 pm 17:53 Partly Cloudy 85 29.4 73 22.8 68 68 ESE 12 19 30.01 1016 10 16 0.00 0.00
6:53 pm 18:53 Mostly Sunny 83 28.3 73 22.8 72 72 SSE 10 17 30.01 1016 10 16 0.00 0.00
7:53 pm 19:53 Sunny 81 27.2 73 22.8 77 77 SE 9 15 30.02 1017 10 16 0.00 0.00
8:53 pm 20:53 Clear 79 26.1 73 22.8 82 82 ESE 7 11 30.03 1017 10 16 0.00 0.00
9:53 pm 21:53 Clear 78 25.6 73 22.8 85 85 ESE 6 9 30.04 1017 10 16 0.00 0.00
10:53 pm 22:53 Clear 78 25.6 73 22.8 85 85 ESE 8 13 30.05 1018 10 16 0.00 0.00
11:53 pm 23:53 Clear 77 25 74 23.3 90 90 ESE 7 11 30.04 1017 10 16 0.00 0.00

Powered by AerisWeather